| time (UTC) | temp F | wind direction | speed knots | gust knots | rain 1hr in | rain 24hr in | rain mn in | humidity % | barometer mb |
| 20260906173317 | 100 | 0.0 | 0.0 | 0.00 | 0.00 | 0.00 | 38 | 1016.3 | |
| 20260906172337 | 98 | 0.0 | 0.0 | 0.00 | 0.00 | 0.00 | 40 | 1016.4 | |
| 20260906171317 | 99 | 0.0 | 0.0 | 0.00 | 0.00 | 0.00 | 39 | 1016.7 | |
| 20260906170316 | 99 | 0.0 | 0.0 | 0.00 | 0.00 | 0.00 | 39 | 1016.8 | |
| 20260906165317 | 98 | 0.0 | 0.0 | 0.00 | 0.00 | 0.00 | 42 | 1016.8 | |
| 20260906164317 | 96 | 0.0 | 0.0 | 0.00 | 0.00 | 0.00 | 44 | 1016.9 | |
| 20260906163337 | 95 | 0.0 | 0.0 | 0.00 | 0.00 | 0.00 | 45 | 1017.0 | |
| 20260906162316 | 93 | 0.0 | 0.0 | 0.00 | 0.00 | 0.00 | 48 | 1016.9 | |
| 20260906161316 | 92 | 0.0 | 0.0 | 0.00 | 0.00 | 0.00 | 51 | 1017.1 | |
| 20260906160316 | 91 | 0.0 | 0.0 | 0.00 | 0.00 | 0.00 | 52 | 1017.0 | |
| 20260906155316 | 90 | 0.0 | 0.0 | 0.00 | 0.00 | 0.00 | 54 | 1017.0 | |
| 20260906154337 | 89 | 0.0 | 0.0 | 0.00 | 0.00 | 0.00 | 55 | 1016.9 | |
| 20260906153316 | 88 | 0.0 | 0.0 | 0.00 | 0.00 | 0.00 | 58 | 1016.9 | |
| 20260906152336 | 86 | 0.0 | 0.0 | 0.00 | 0.00 | 0.00 | 61 | 1016.7 | |
| 20260906151336 | 84 | 0.0 | 0.0 | 0.00 | 0.00 | 0.00 | 64 | 1016.6 | |
| 20260906150317 | 83 | 0.0 | 0.0 | 0.00 | 0.00 | 0.00 | 66 | 1016.5 | |
| 20260906145316 | 82 | 0.0 | 0.0 | 0.00 | 0.00 | 0.00 | 71 | 1016.6 | |
| 20260906144316 | 81 | 0.0 | 0.0 | 0.00 | 0.00 | 0.00 | 70 | 1016.7 | |
| 20260906143316 | 80 | 0.0 | 0.0 | 0.00 | 0.00 | 0.00 | 74 | 1016.7 | |
| 20260906142316 | 79 | 0.0 | 0.0 | 0.00 | 0.00 | 0.00 | 77 | 1016.7 | |
| 20260906141316 | 77 | 0.0 | 0.0 | 0.00 | 0.00 | 0.00 | 79 | 1016.7 | |
| 20260906140316 | 76 | 0.0 | 0.0 | 0.00 | 0.00 | 0.00 | 82 | 1016.5 | |
| 20260906135316 | 75 | 0.0 | 0.0 | 0.00 | 0.00 | 0.00 | 86 | 1016.6 | |
| 20260906134316 | 74 | 0.0 | 0.0 | 0.00 | 0.00 | 0.00 | 89 | 1016.6 | |
| 20260906133316 | 73 | 0.0 | 0.0 | 0.00 | 0.00 | 0.00 | 90 | 1016.3 | |
| 20260906132338 | 73 | 0.0 | 0.0 | 0.00 | 0.00 | 0.00 | 90 | 1016.3 | |
| 20260906131316 | 72 | 0.0 | 0.0 | 0.00 | 0.00 | 0.00 | 90 | 1016.2 | |
| 20260906130316 | 72 | 0.0 | 0.0 | 0.00 | 0.00 | 0.00 | 89 | 1016.3 | |
| 20260906125356 | 72 | 0.0 | 0.0 | 0.00 | 0.00 | 0.00 | 88 | 1016.2 | |
| 20260906124316 | 71 | 0.0 | 0.0 | 0.00 | 0.00 | 0.00 | 88 | 1016.1 | |
| 20260906123316 | 71 | 0.0 | 0.0 | 0.00 | 0.00 | 0.00 | 88 | 1015.9 | |
| 20260906122316 | 72 | 0.0 | 0.0 | 0.00 | 0.00 | 0.00 | 87 | 1015.8 | |
| 20260906121316 | 72 | 0.0 | 0.0 | 0.00 | 0.00 | 0.00 | 87 | 1015.7 | |
| 20260906120316 | 72 | 0.0 | 0.0 | 0.00 | 0.00 | 0.00 | 87 | 1015.6 | |
| 20260906115316 | 72 | 0.0 | 0.0 | 0.00 | 0.00 | 0.00 | 86 | 1015.4 | |
| 20260906114318 | 72 | 0.0 | 0.0 | 0.00 | 0.00 | 0.00 | 86 | 1015.4 | |
| 20260906113356 | 72 | 0.0 | 0.0 | 0.00 | 0.00 | 0.00 | 85 | 1015.5 | |
| 20260906112316 | 72 | 0.0 | 0.0 | 0.00 | 0.00 | 0.00 | 86 | 1015.4 | |
| 20260906111316 | 72 | 0.0 | 0.0 | 0.00 | 0.00 | 0.00 | 86 | 1015.3 | |
| 20260906110316 | 73 | 0.0 | 0.0 | 0.00 | 0.00 | 0.00 | 85 | 1015.2 | |
| 20260906105336 | 73 | 0.0 | 0.0 | 0.00 | 0.00 | 0.00 | 85 | 1015.3 | |
| 20260906104316 | 73 | 0.0 | 0.0 | 0.00 | 0.00 | 0.00 | 84 | 1015.2 | |
| 20260906103416 | 73 | 0.0 | 0.0 | 0.00 | 0.00 | 0.00 | 84 | 1015.3 | |
| 20260906102316 | 73 | 0.0 | 0.0 | 0.00 | 0.00 | 0.00 | 84 | 1015.2 | |
| 20260906101336 | 73 | 0.0 | 0.0 | 0.00 | 0.00 | 0.00 | 83 | 1015.2 | |
| 20260906100318 | 73 | 0.0 | 0.0 | 0.00 | 0.00 | 0.00 | 83 | 1015.0 | |
| 20260906095316 | 74 | 0.0 | 0.0 | 0.00 | 0.00 | 0.00 | 83 | 1015.1 | |
| 20260906094316 | 74 | 0.0 | 0.0 | 0.00 | 0.00 | 0.00 | 82 | 1015.1 | |
| 20260906093316 | 74 | 0.0 | 0.0 | 0.00 | 0.00 | 0.00 | 81 | 1015.1 | |
| 20260906092316 | 74 | 0.0 | 0.0 | 0.00 | 0.00 | 0.00 | 81 | 1015.1 | |
| 20260906091316 | 74 | 0.0 | 0.0 | 0.00 | 0.00 | 0.00 | 81 | 1015.0 | |
| 20260906090316 | 75 | 0.0 | 0.0 | 0.00 | 0.00 | 0.00 | 81 | 1015.0 | |
| 20260906085316 | 75 | 0.0 | 0.0 | 0.00 | 0.00 | 0.00 | 79 | 1014.9 | |
| 20260906084336 | 75 | 0.0 | 0.0 | 0.00 | 0.00 | 0.00 | 79 | 1014.9 | |
| 20260906083316 | 75 | 0.0 | 0.0 | 0.00 | 0.00 | 0.00 | 78 | 1014.9 | |
| 20260906082316 | 75 | 0.0 | 0.0 | 0.00 | 0.00 | 0.00 | 78 | 1014.8 | |
| 20260906081316 | 76 | 0.0 | 0.0 | 0.00 | 0.00 | 0.00 | 78 | 1014.9 | |
| 20260906080316 | 76 | 0.0 | 0.0 | 0.00 | 0.00 | 0.00 | 77 | 1014.8 | |
| 20260906075316 | 76 | 0.0 | 0.0 | 0.00 | 0.00 | 0.00 | 76 | 1014.8 | |
| 20260906074315 | 76 | 0.0 | 0.0 | 0.00 | 0.00 | 0.00 | 76 | 1014.8 | |
| 20260906073316 | 77 | 0.0 | 0.0 | 0.00 | 0.00 | 0.00 | 75 | 1015.0 | |
| 20260906072336 | 77 | 0.0 | 0.0 | 0.00 | 0.00 | 0.00 | 75 | 1015.1 | |
| 20260906071315 | 77 | 0.0 | 0.0 | 0.00 | 0.00 | 0.00 | 74 | 1015.0 | |
| 20260906070315 | 77 | 0.0 | 0.0 | 0.00 | 0.00 | 0.00 | 73 | 1015.1 | |
| 20260906065315 | 78 | 0.0 | 0.0 | 0.00 | 0.00 | 0.00 | 73 | 1015.2 | |
| 20260906064315 | 78 | 0.0 | 0.0 | 0.00 | 0.00 | 0.00 | 73 | 1015.2 | |
| 20260906063315 | 78 | 0.0 | 0.0 | 0.00 | 0.00 | 0.00 | 72 | 1015.4 | |
| 20260906062315 | 78 | 0.0 | 0.0 | 0.00 | 0.00 | 0.00 | 72 | 1015.4 | |
| 20260906061336 | 78 | 0.0 | 0.0 | 0.00 | 0.00 | 0.00 | 72 | 1015.3 | |
| 20260906060315 | 79 | 0.0 | 0.0 | 0.00 | 0.00 | 0.00 | 72 | 1015.3 | |
| 20260906055315 | 79 | 0.0 | 0.0 | 0.00 | 0.00 | 0.00 | 70 | 1015.4 | |
| 20260906054335 | 79 | 0.0 | 0.0 | 0.00 | 0.00 | 0.00 | 71 | 1015.1 | |
| 20260906053336 | 80 | 0.0 | 0.0 | 0.00 | 0.00 | 0.00 | 70 | 1015.1 | |
| 20260906052315 | 80 | 0.0 | 0.0 | 0.00 | 0.00 | 0.00 | 70 | 1015.1 | |
| 20260906051315 | 80 | 0.0 | 0.0 | 0.00 | 0.00 | 0.00 | 69 | 1015.0 | |
| 20260906050315 | 80 | 0.0 | 0.0 | 0.00 | 0.00 | 0.00 | 68 | 1015.0 | |
| 20260906045315 | 81 | 0.0 | 0.0 | 0.00 | 0.00 | 0.00 | 68 | 1015.1 | |
| 20260906044315 | 81 | 0.0 | 0.0 | 0.00 | 0.00 | 0.00 | 66 | 1015.0 | |
| 20260906043335 | 82 | 0.0 | 0.0 | 0.00 | 0.00 | 0.00 | 65 | 1015.0 | |
| 20260906042315 | 82 | 0.0 | 0.0 | 0.00 | 0.00 | 0.00 | 64 | 1015.1 | |
| 20260906041315 | 83 | 0.0 | 0.0 | 0.00 | 0.00 | 0.00 | 64 | 1015.1 | |
| 20260906040315 | 83 | 0.0 | 0.0 | 0.00 | 0.00 | 0.00 | 62 | 1014.9 | |
| 20260906035315 | 84 | 0.0 | 0.0 | 0.00 | 0.00 | 0.00 | 62 | 1015.0 | |
| 20260906034315 | 84 | 0.0 | 0.0 | 0.00 | 0.00 | 0.00 | 61 | 1014.8 | |
| 20260906033315 | 85 | 0.0 | 0.0 | 0.00 | 0.00 | 0.00 | 59 | 1014.9 | |
| 20260906032315 | 85 | 0.0 | 0.0 | 0.00 | 0.00 | 0.00 | 57 | 1014.7 | |
| 20260906031335 | 86 | 0.0 | 0.0 | 0.00 | 0.00 | 0.00 | 56 | 1014.5 | |
| 20260906030315 | 87 | 0.0 | 0.0 | 0.00 | 0.00 | 0.00 | 55 | 1014.5 | |
| 20260906025315 | 87 | 0.0 | 0.0 | 0.00 | 0.00 | 0.00 | 54 | 1014.3 | |
| 20260906024335 | 88 | 0.0 | 0.0 | 0.00 | 0.00 | 0.00 | 53 | 1014.1 | |
| 20260906023317 | 89 | 0.0 | 0.0 | 0.00 | 0.00 | 0.00 | 51 | 1014.1 | |
| 20260906022317 | 89 | 0.0 | 0.0 | 0.00 | 0.00 | 0.00 | 50 | 1013.9 | |
| 20260906021337 | 90 | 0.0 | 0.0 | 0.00 | 0.00 | 0.00 | 49 | 1013.9 | |
| 20260906020317 | 90 | 0.0 | 0.0 | 0.00 | 0.00 | 0.00 | 49 | 1013.5 | |
| 20260906015317 | 91 | 0.0 | 0.0 | 0.00 | 0.00 | 0.00 | 48 | 1013.7 | |
| 20260906014317 | 91 | 0.0 | 0.0 | 0.00 | 0.00 | 0.00 | 47 | 1013.2 | |
| 20260906013317 | 92 | 0.0 | 0.0 | 0.00 | 0.00 | 0.00 | 46 | 1013.1 | |
| 20260906012317 | 92 | 0.0 | 0.0 | 0.00 | 0.00 | 0.00 | 46 | 1013.2 | |
| 20260906011317 | 92 | 0.0 | 0.0 | 0.00 | 0.00 | 0.00 | 46 | 1012.9 | |
| 20260906010337 | 93 | 0.0 | 0.0 | 0.00 | 0.00 | 0.00 | 45 | 1013.0 | |
| 20260906005317 | 94 | 0.0 | 0.0 | 0.00 | 0.00 | 0.00 | 44 | 1013.0 | |
| 20260906004357 | 95 | 0.0 | 0.0 | 0.00 | 0.00 | 0.00 | 43 | 1013.1 | |
| 20260906003337 | 95 | 0.0 | 0.0 | 0.00 | 0.00 | 0.00 | 41 | 1013.0 | |
| 20260906002317 | 96 | 0.0 | 0.0 | 0.00 | 0.00 | 0.00 | 42 | 1013.1 | |
| 20260906001337 | 96 | 0.0 | 0.0 | 0.00 | 0.00 | 0.00 | 41 | 1013.1 | |
| 20260906000337 | 97 | 0.0 | 0.0 | 0.00 | 0.00 | 0.00 | 39 | 1013.1 | |
| 20260905235337 | 96 | 0.0 | 0.0 | 0.00 | 0.00 | 0.00 | 39 | 1013.0 | |
| 20260905234317 | 97 | 0.0 | 0.0 | 0.00 | 0.00 | 0.00 | 37 | 1012.8 | |
| 20260905233317 | 98 | 0.0 | 0.0 | 0.00 | 0.00 | 0.00 | 36 | 1013.0 | |
| 20260905232317 | 99 | 0.0 | 0.0 | 0.00 | 0.00 | 0.00 | 35 | 1013.0 | |
| 20260905231317 | 100 | 0.0 | 0.0 | 0.00 | 0.00 | 0.00 | 35 | 1013.1 | |
| 20260905230317 | 100 | 0.0 | 0.0 | 0.00 | 0.00 | 0.00 | 34 | 1013.1 | |
| 20260905225317 | 99 | 0.0 | 0.0 | 0.00 | 0.00 | 0.00 | 33 | 1013.0 | |
| 20260905224337 | 99 | 0.0 | 0.0 | 0.00 | 0.00 | 0.00 | 35 | 1013.0 | |
| 20260905223317 | 100 | 0.0 | 0.0 | 0.00 | 0.00 | 0.00 | 36 | 1013.0 | |
| 20260905222337 | 99 | 0.0 | 0.0 | 0.00 | 0.00 | 0.00 | 34 | 1013.0 | |
| 20260905221317 | 100 | 0.0 | 0.0 | 0.00 | 0.00 | 0.00 | 35 | 1013.2 | |
| 20260905220317 | 102 | 0.0 | 0.0 | 0.00 | 0.00 | 0.00 | 32 | 1013.3 | |
| 20260905215317 | 102 | 0.0 | 0.0 | 0.00 | 0.00 | 0.00 | 33 | 1013.3 | |
| 20260905214317 | 102 | 0.0 | 0.0 | 0.00 | 0.00 | 0.00 | 33 | 1013.3 | |
| 20260905213317 | 103 | 0.0 | 0.0 | 0.00 | 0.00 | 0.00 | 32 | 1013.4 | |
| 20260905212317 | 103 | 0.0 | 0.0 | 0.00 | 0.00 | 0.00 | 32 | 1013.5 | |
| 20260905211317 | 104 | 0.0 | 0.0 | 0.00 | 0.00 | 0.00 | 32 | 1013.8 | |
| 20260905210317 | 103 | 0.0 | 0.0 | 0.00 | 0.00 | 0.00 | 33 | 1013.9 | |
| 20260905205317 | 102 | 0.0 | 0.0 | 0.00 | 0.00 | 0.00 | 36 | 1014.0 | |
| 20260905204357 | 103 | 0.0 | 0.0 | 0.00 | 0.00 | 0.00 | 33 | 1014.3 | |
| 20260905203316 | 102 | 0.0 | 0.0 | 0.00 | 0.00 | 0.00 | 35 | 1014.5 | |
| 20260905202317 | 102 | 0.0 | 0.0 | 0.00 | 0.00 | 0.00 | 34 | 1014.6 | |
| 20260905201317 | 103 | 0.0 | 0.0 | 0.00 | 0.00 | 0.00 | 34 | 1014.7 | |
| 20260905200316 | 104 | 0.0 | 0.0 | 0.00 | 0.00 | 0.00 | 34 | 1015.0 | |
| 20260905195316 | 101 | 0.0 | 0.0 | 0.00 | 0.00 | 0.00 | 36 | 1014.9 | |
| 20260905194317 | 101 | 0.0 | 0.0 | 0.00 | 0.00 | 0.00 | 36 | 1015.0 | |
| 20260905193317 | 103 | 0.0 | 0.0 | 0.00 | 0.00 | 0.00 | 35 | 1015.2 | |
| 20260905192317 | 101 | 0.0 | 0.0 | 0.00 | 0.00 | 0.00 | 36 | 1015.2 | |
| 20260905191316 | 101 | 0.0 | 0.0 | 0.00 | 0.00 | 0.00 | 35 | 1015.4 | |
| 20260905190317 | 101 | 0.0 | 0.0 | 0.00 | 0.00 | 0.00 | 36 | 1015.6 | |
| 20260905185316 | 101 | 0.0 | 0.0 | 0.00 | 0.00 | 0.00 | 37 | 1016.0 | |
| 20260905184316 | 101 | 0.0 | 0.0 | 0.00 | 0.00 | 0.00 | 40 | 1016.1 | |
| 20260905183316 | 101 | 0.0 | 0.0 | 0.00 | 0.00 | 0.00 | 39 | 1016.1 | |
| 20260905182316 | 99 | 0.0 | 0.0 | 0.00 | 0.00 | 0.00 | 40 | 1016.2 | |
| 20260905181316 | 101 | 0.0 | 0.0 | 0.00 | 0.00 | 0.00 | 39 | 1016.5 | |
| 20260905180316 | 100 | 0.0 | 0.0 | 0.00 | 0.00 | 0.00 | 39 | 1016.7 | |
| 20260905175316 | 100 | 0.0 | 0.0 | 0.00 | 0.00 | 0.00 | 42 | 1016.9 | |
| 20260905174317 | 99 | 0.0 | 0.0 | 0.00 | 0.00 | 0.00 | 42 | 1016.9 |